Change the Weather History Date:

Friday, January 3, 2014

  Actual Average (KESN) Record (KESN)
Temperature  
Mean Temperature 24 °F -  
Max Temperature 33 °F 42 °F 61 °F (1964)
Min Temperature 14 °F 25 °F 12 °F (2014)
Degree Days  
Heating Degree Days 42    
Moisture  
Dew Point 13 °F    
Average Humidity 64    
Maximum Humidity 100    
Minimum Humidity 37    
Precipitation  
Precipitation 0.00 in - - ()
Sea Level Pressure  
Sea Level Pressure 30.12 in    
Wind  
Wind Speed 12 mph (NNW)    
Max Wind Speed 24 mph    
Max Gust Speed 36 mph    
Visibility 6 miles    
Events      
Averages and records for this station are not official NWS values.
T = Trace of Precipitation, MM = Missing Value Source: NWS Daily Summary

Daily Weather History Graph

Daily Weather History Graph

Search for Another Location

Airport or City:

Trip Planner

Search our weather history database for the weather conditions in past years. The results will help you decide how hot, cold, wet, or windy it might be!

Date:

Astronomy

Jan. 03, 2014 Rise Set
Actual Time 7:21 AM EST 4:55 PM EST
Civil Twilight 6:52 AM EST 5:25 PM EST
Nautical Twilight 6:19 AM EST 5:58 PM EST
Astronomical Twilight 5:47 AM EST 6:30 PM EST
Moon 8:48 AM EST (1/3) 7:59 PM EST (1/3)
Length of Visible Light 10h 32m
Length of Day
9h 33m
Waxing Crescent, 8% of the Moon is Illuminated
Jan 3
Waxing Crescent
Jan 7
First Quarter
Jan 15
Full
Jan 24
Last Quarter
Jan 30
New

Hourly Weather History & Observations

Time (EST) Temp. Windchill Dew Point Humidity Pressure Visibility Wind Dir Wind Speed Gust Speed Precip Events Conditions
12:08 AM 33.8 °F 28.6 °F 32.0 °F 93% 29.57 in 1.5 mi NNW 5.8 mph - N/A   Overcast
12:27 AM 32.0 °F 24.2 °F 32.0 °F 100% 29.57 in 1.2 mi NNW 9.2 mph - N/A   Overcast
12:48 AM 32.0 °F 23.0 °F 30.2 °F 93% 29.58 in 1.0 mi NNW 11.5 mph - N/A   Overcast
1:08 AM 32.0 °F 23.0 °F 30.2 °F 93% 29.57 in 1.5 mi NNW 11.5 mph - N/A   Overcast
1:28 AM 32.0 °F 24.2 °F 30.2 °F 93% 29.58 in 7.0 mi North 9.2 mph - N/A   Overcast
1:49 AM 32.0 °F 23.6 °F 30.2 °F 93% 29.61 in 5.0 mi NNW 10.4 mph 16.1 mph N/A   Overcast
2:09 AM 32.0 °F 24.2 °F 30.2 °F 93% 29.62 in 3.0 mi NNW 9.2 mph - N/A   Overcast
2:29 AM 30.2 °F 21.3 °F 28.4 °F 93% 29.65 in 1.8 mi NNW 10.4 mph - N/A   Overcast
2:49 AM 30.2 °F 19.8 °F 28.4 °F 93% 29.67 in 1.2 mi NNW 13.8 mph 21.9 mph N/A   Overcast
3:09 AM 28.4 °F 17.5 °F 26.6 °F 93% 29.68 in 1.8 mi NNW 13.8 mph - N/A   Overcast
3:29 AM 28.4 °F 17.5 °F 24.8 °F 86% 29.71 in 3.0 mi North 13.8 mph - N/A   Overcast
3:49 AM 26.6 °F 16.2 °F 23.0 °F 86% 29.72 in 5.0 mi NNW 11.5 mph 19.6 mph N/A   Overcast
4:09 AM 26.6 °F 14.3 °F 23.0 °F 86% 29.74 in 4.0 mi NNW 16.1 mph 23.0 mph N/A   Overcast
4:28 AM 26.6 °F 16.8 °F 21.2 °F 80% 29.76 in 7.0 mi North 10.4 mph 19.6 mph N/A   Overcast
4:49 AM 26.6 °F 18.2 °F 23.0 °F 86% 29.77 in 7.0 mi North 8.1 mph - N/A   Overcast
5:09 AM 26.6 °F 16.8 °F 23.0 °F 86% 29.80 in 2.5 mi North 10.4 mph - N/A   Overcast
5:29 AM 26.6 °F 13.1 °F 21.2 °F 80% 29.83 in 1.5 mi NW 19.6 mph 28.8 mph N/A   Overcast
5:49 AM 24.8 °F 11.1 °F 21.2 °F 86% 29.86 in 1.5 mi NW 18.4 mph 31.1 mph N/A   Overcast
6:09 AM 24.8 °F 12.4 °F 21.2 °F 86% 29.89 in 2.5 mi NW 15.0 mph 21.9 mph N/A   Overcast
6:29 AM 24.8 °F 13.4 °F 19.4 °F 80% 29.91 in 2.0 mi NW 12.7 mph 24.2 mph N/A   Overcast
6:49 AM 23.0 °F 8.0 °F 17.6 °F 80% 29.93 in 2.0 mi NW 20.7 mph 26.5 mph N/A   Overcast
7:09 AM 23.0 °F 8.3 °F 15.8 °F 74% 29.96 in 1.5 mi NW 19.6 mph 33.4 mph N/A   Mostly Cloudy
7:29 AM 23.0 °F 8.0 °F 15.8 °F 74% 29.99 in 1.2 mi NW 20.7 mph 31.1 mph N/A   Overcast
7:49 AM 23.0 °F 7.6 °F 14.0 °F 68% 30.00 in 1.8 mi NW 21.9 mph 32.2 mph N/A   Overcast
8:09 AM 23.0 °F 7.6 °F 14.0 °F 68% 30.04 in 1.8 mi NW 21.9 mph 31.1 mph N/A   Overcast
8:29 AM 23.0 °F 8.0 °F 14.0 °F 68% 30.06 in 2.5 mi NNW 20.7 mph 28.8 mph N/A   Mostly Cloudy
8:49 AM 23.0 °F 8.7 °F 14.0 °F 68% 30.07 in 7.0 mi NW 18.4 mph 25.3 mph N/A   Scattered Clouds
9:09 AM 23.0 °F 8.3 °F 12.2 °F 63% 30.10 in 4.0 mi NW 19.6 mph 28.8 mph N/A   Mostly Cloudy
9:29 AM 23.0 °F 7.6 °F 12.2 °F 63% 30.12 in 7.0 mi NW 21.9 mph 27.6 mph N/A   Scattered Clouds
9:49 AM 23.0 °F 8.3 °F 12.2 °F 63% 30.15 in 2.0 mi NW 19.6 mph 32.2 mph N/A   Clear
10:09 AM 23.0 °F 7.2 °F 10.4 °F 59% 30.16 in 3.0 mi NW 23.0 mph 33.4 mph N/A   Clear
10:30 AM 23.0 °F 7.6 °F 10.4 °F 59% 30.17 in 4.0 mi NW 21.9 mph 31.1 mph N/A   Scattered Clouds
10:50 AM 23.0 °F 7.2 °F 10.4 °F 59% 30.18 in 3.0 mi NW 23.0 mph 33.4 mph N/A   Scattered Clouds
11:10 AM 23.0 °F 6.9 °F 10.4 °F 59% 30.19 in 4.0 mi NW 24.2 mph 35.7 mph N/A   Clear
11:30 AM 23.0 °F 8.0 °F 10.4 °F 59% 30.20 in 10.0 mi NW 20.7 mph 28.8 mph N/A   Clear
11:50 AM 23.0 °F 9.2 °F 8.6 °F 54% 30.20 in 7.0 mi NW 17.3 mph 32.2 mph N/A   Clear
12:10 PM 23.0 °F 8.0 °F 6.8 °F 50% 30.22 in 7.0 mi NW 20.7 mph 29.9 mph N/A   Clear
12:30 PM 24.8 °F 12.4 °F 8.6 °F 50% 30.22 in 10.0 mi NW 15.0 mph 24.2 mph N/A   Clear
12:50 PM 24.8 °F 13.4 °F 6.8 °F 46% 30.22 in 10.0 mi NNW 12.7 mph 28.8 mph N/A   Clear
1:10 PM 24.8 °F 11.5 °F 5.0 °F 43% 30.23 in 10.0 mi NW 17.3 mph 25.3 mph N/A   Clear
1:30 PM 24.8 °F 11.5 °F 5.0 °F 43% 30.23 in 10.0 mi NW 17.3 mph 25.3 mph N/A   Clear
1:50 PM 26.6 °F 13.4 °F 5.0 °F 40% 30.24 in 10.0 mi NW 18.4 mph 29.9 mph N/A   Clear
2:10 PM 26.6 °F 13.1 °F 5.0 °F 40% 30.25 in 10.0 mi NW 19.6 mph 27.6 mph N/A   Clear
2:30 PM 26.6 °F 13.1 °F 5.0 °F 40% 30.26 in 10.0 mi NW 19.6 mph 25.3 mph N/A   Clear
2:50 PM 26.6 °F 13.4 °F 3.2 °F 37% 30.29 in 10.0 mi NNW 18.4 mph 24.2 mph N/A   Clear
3:10 PM 26.6 °F 13.1 °F 3.2 °F 37% 30.30 in 10.0 mi NW 19.6 mph 27.6 mph N/A   Clear
3:30 PM 26.6 °F 14.7 °F 3.2 °F 37% 30.32 in 10.0 mi NW 15.0 mph 23.0 mph N/A   Clear
3:50 PM 26.6 °F 16.8 °F 5.0 °F 40% 30.33 in 10.0 mi NW 10.4 mph 17.3 mph N/A   Clear
4:10 PM 26.6 °F 16.2 °F 3.2 °F 37% 30.34 in 10.0 mi NW 11.5 mph 19.6 mph N/A   Clear
4:30 PM 26.6 °F 16.2 °F 3.2 °F 37% 30.36 in 10.0 mi NW 11.5 mph 17.3 mph N/A   Clear
4:50 PM 24.8 °F 14.0 °F 3.2 °F 40% 30.37 in 10.0 mi NW 11.5 mph 17.3 mph N/A   Clear
5:10 PM 24.8 °F 14.0 °F 3.2 °F 40% 30.38 in 10.0 mi NW 11.5 mph - N/A   Clear
5:30 PM 24.8 °F 16.1 °F 3.2 °F 40% 30.40 in 10.0 mi NW 8.1 mph - N/A   Clear
5:50 PM 24.8 °F 14.6 °F 3.2 °F 40% 30.41 in 10.0 mi NNW 10.4 mph 17.3 mph N/A   Clear
6:10 PM 24.8 °F 15.3 °F 3.2 °F 40% 30.42 in 10.0 mi NNW 9.2 mph - N/A   Clear
6:30 PM 24.8 °F 19.1 °F 5.0 °F 43% 30.43 in 10.0 mi North 4.6 mph - N/A   Clear
6:50 PM 23.0 °F 13.9 °F 3.2 °F 43% 30.44 in 10.0 mi NNE 8.1 mph - N/A   Clear
7:11 PM 23.0 °F 13.9 °F 3.2 °F 43% 30.45 in 10.0 mi North 8.1 mph - N/A   Clear
7:31 PM 23.0 °F 13.9 °F 3.2 °F 43% 30.46 in 10.0 mi North 8.1 mph - N/A   Clear
8:31 PM 23.0 °F 15.8 °F 5.0 °F 46% 30.47 in 10.0 mi North 5.8 mph - N/A   Clear
9:11 PM 21.2 °F 16.4 °F 5.0 °F 50% 30.49 in 10.0 mi North 3.5 mph - N/A   Clear
9:31 PM 19.4 °F - 5.0 °F 54% 30.50 in 10.0 mi Calm Calm - N/A   Clear
9:51 PM 19.4 °F - 8.6 °F 63% 30.50 in 10.0 mi Calm Calm - N/A   Clear
10:11 PM 17.6 °F - 6.8 °F 63% 30.50 in 10.0 mi Calm Calm - N/A   Clear
10:31 PM 17.6 °F - 8.6 °F 68% 30.50 in 10.0 mi Calm Calm - N/A   Clear
10:51 PM 17.6 °F - 8.6 °F 68% 30.50 in 10.0 mi Calm Calm - N/A   Clear
11:11 PM 14.0 °F 8.2 °F 8.6 °F 79% 30.50 in 10.0 mi SE 3.5 mph - N/A   Clear
11:31 PM 14.0 °F 6.5 °F 8.6 °F 79% 30.51 in 10.0 mi SE 4.6 mph - N/A   Clear
11:51 PM 14.0 °F - 8.6 °F 79% 30.51 in 10.0 mi Calm Calm - N/A   Clear